Location: Aufkirchen
(47.9603°N, 11.3653°E)
Time: 00:11:17
(UTC+01:00)

Transit 2A Rocket - Pass Details

Date: 06 December 2020
Orbit: 592 x 911 km, 66.7° (Epoch: 20 January)

Event Time Altitude Azimuth Distance (km) Brightness Sun altitude
Rises 22:48:42 0° 164° (SSE) 3,499 - -60.3°
Reaches altitude 10° 22:52:04 10° 146° (SE) 2,532 - -60.7°
Maximum altitude 22:55:47 18° 107° (ESE) 2,008 - -61.1°
Drops below altitude 10° 22:59:22 10° 67° (ENE) 2,436 - -61.4°
Sets 23:02:30 0° 48° (NE) 3,313 - -61.7°
